User: anonymous   Login
Location: Brotuna
(46.2000°N, 22.6000°E)
Time: 10:25:37
(UTC+00:00)
Language:

CZ-4C R/B - Orbit

View from above orbital plane
View from above orbital plane
View from above satellite
View from above satellite

Ground track
Ground track

The orbit data is extracted from the following two-line orbital elements,

1 36416U 10009D   20183.50485297 -.00000077 +00000-0 +14906-4 0  9993
2 36416 063.4234 163.1879 0496376 355.2781 004.3662 13.69571026516277
Epoch (UTC): 01 July 2020 12:06:59
Eccentricity: 0.0496376
inclination: 63.4234°
perigee height: 635 km
apogee height: 1367 km
right ascension of ascending node: 163.1879°
argument of perigee: 355.2781°
revolutions per day: 13.69571026
mean anomaly at epoch: 4.3662°
orbit number at epoch: 51627

The dashed part of the orbit path shows where the satellite is in the earth's shadow,  

DLR